Tacoma, WA

10:33 AM PST on November 21, 2017 (GMT -0800)
McChord Air Force Base

Weather History for KTCM - January, 2012

Change the Weather History Date:

Saturday, January 14, 2012

  Actual Average Record
Temperature  
Mean Temperature 36 °F -  
Max Temperature 41 °F 44 °F 61 °F (1973)
Min Temperature 30 °F 32 °F 14 °F (2007)
Degree Days  
Heating Degree Days 30    
Moisture  
Dew Point 34 °F    
Average Humidity 91    
Maximum Humidity 100    
Minimum Humidity 70    
Precipitation  
Precipitation 0.19 in - - ()
Sea Level Pressure  
Sea Level Pressure 29.99 in    
Wind  
Wind Speed 9 mph (SW)    
Max Wind Speed 24 mph    
Max Gust Speed 31 mph    
Visibility 8 miles    
Events Fog , Rain , Snow    
Averages and records for this station are not official NWS values.
T = Trace of Precipitation, MM = Missing Value Source: NWS Daily Summary

Daily Weather History Graph

Daily Weather History Graph

Search for Another Location

Airport or City:

Trip Planner

Search our weather history database for the weather conditions in past years. The results will help you decide how hot, cold, wet, or windy it might be!

Date:

Astronomy

Jan. 14, 2012 Rise Set
Actual Time 7:52 AM PST 4:45 PM PST
Civil Twilight 7:18 AM PST 5:20 PM PST
Nautical Twilight 6:40 AM PST 5:58 PM PST
Astronomical Twilight 6:03 AM PST 6:34 PM PST
Moon 11:43 PM PST (1/14) 10:13 AM PST (1/14)
Length of Visible Light 10h 01m
Length of Day
8h 52m
Waning Gibbous, 67% of the Moon is Illuminated
Jan 14
Waning Gibbous
Jan 16
Last Quarter
Jan 22
New
Jan 30
First Quarter
Feb 7
Full

Hourly Weather History & Observations

Time (PST) Temp. Windchill Dew Point Humidity Pressure Visibility Wind Dir Wind Speed Gust Speed Precip Events Conditions
12:55 AM 34.7 °F 31.8 °F 32.4 °F 91% 30.03 in 10.0 mi SE 3.5 mph - N/A   Overcast
1:55 AM 34.5 °F - 32.4 °F 92% 30.02 in 10.0 mi Calm Calm - N/A   Overcast
2:55 AM 34.7 °F - 32.7 °F 92% 30.02 in 10.0 mi Calm Calm - N/A   Overcast
3:55 AM 36.0 °F 33.3 °F 31.6 °F 84% 30.01 in 10.0 mi Variable 3.5 mph - N/A   Overcast
4:55 AM 39.6 °F 34.7 °F 30.4 °F 70% 29.99 in 10.0 mi SSW 6.9 mph - N/A   Mostly Cloudy
4:58 AM 39.2 °F 33.6 °F 30.2 °F 70% 30.00 in 10.0 mi SSW 8.1 mph - N/A Rain Light Rain
5:55 AM 37.4 °F 30.8 °F 33.8 °F 87% 29.98 in 10.0 mi South 9.2 mph - 0.01 in Rain Light Rain
6:17 AM 37.4 °F 33.8 °F 33.8 °F 87% 29.98 in 10.0 mi SW 4.6 mph - N/A Rain Light Rain
6:55 AM 36.3 °F 33.7 °F 35.2 °F 96% 29.97 in 10.0 mi WSW 3.5 mph - 0.03 in Rain Light Rain
7:54 AM 37.4 °F 32.8 °F 37.4 °F 100% 29.96 in 5.0 mi SSW 5.8 mph - N/A Rain Light Rain
7:55 AM 36.9 °F 32.2 °F 36.7 °F 99% 29.96 in 5.0 mi SSW 5.8 mph - 0.01 in Rain Light Rain
8:26 AM 37.4 °F 30.8 °F 37.4 °F 100% 29.96 in 8.0 mi South 9.2 mph - N/A Rain Light Rain
8:35 AM 37.4 °F 30.8 °F 37.4 °F 100% 29.95 in 10.0 mi South 9.2 mph - N/A   Overcast
8:37 AM 37.4 °F 30.3 °F 37.4 °F 100% 29.95 in 10.0 mi SSW 10.4 mph - N/A Rain Light Rain
8:55 AM 38.3 °F 33.9 °F 37.9 °F 99% 29.94 in 8.0 mi South 5.8 mph - 0.01 in   Light Drizzle
9:03 AM 37.4 °F 31.4 °F 37.4 °F 100% 29.94 in 8.0 mi South 8.1 mph - N/A   Overcast
9:06 AM 37.4 °F 31.4 °F 37.4 °F 100% 29.94 in 8.0 mi South 8.1 mph - N/A   Light Drizzle
9:55 AM 40.1 °F 34.1 °F 39.9 °F 99% 29.92 in 10.0 mi South 9.2 mph - 0.02 in Rain Light Rain
10:12 AM 41.0 °F 35.2 °F 39.2 °F 93% 29.92 in 8.0 mi SSW 9.2 mph - N/A   Overcast
10:38 AM 41.0 °F 34.3 °F 41.0 °F 100% 29.93 in 10.0 mi SW 11.5 mph - N/A Rain Light Rain
10:39 AM 41.0 °F 34.7 °F 41.0 °F 100% 29.93 in 10.0 mi SW 10.4 mph - N/A Rain Light Rain
10:54 AM 41.0 °F 31.4 °F 39.2 °F 93% 29.94 in 9.0 mi SW 21.9 mph 29.9 mph N/A   Overcast
10:55 AM 40.3 °F 29.9 °F 39.0 °F 95% 29.94 in 9.0 mi SW 24.2 mph 31.1 mph 0.05 in   Overcast
11:12 AM 39.2 °F 31.2 °F 35.6 °F 87% 29.95 in 8.0 mi WSW 13.8 mph 31.1 mph N/A   Overcast
11:45 AM 37.4 °F 28.9 °F 35.6 °F 93% 29.97 in 10.0 mi WSW 13.8 mph 28.8 mph N/A Rain Light Rain
11:55 AM 37.8 °F 28.6 °F 35.2 °F 91% 29.98 in 10.0 mi WSW 16.1 mph 29.9 mph 0.03 in Rain Light Rain
11:59 AM 37.4 °F 28.5 °F 35.6 °F 93% 29.98 in 10.0 mi WSW 15.0 mph 29.9 mph N/A Rain Light Rain
12:43 PM 37.4 °F 31.4 °F 33.8 °F 87% 29.98 in 10.0 mi SW 8.1 mph - N/A   Overcast
12:48 PM 37.4 °F 30.8 °F 33.8 °F 87% 29.98 in 10.0 mi SW 9.2 mph - N/A Rain Light Rain
12:55 PM 37.8 °F 30.7 °F 34.2 °F 87% 29.98 in 10.0 mi SW 10.4 mph - 0.00 in Rain Light Rain
1:10 PM 37.4 °F 30.8 °F 35.6 °F 93% 29.98 in 10.0 mi SSW 9.2 mph - N/A   Overcast
1:23 PM 37.4 °F 29.8 °F 35.6 °F 93% 29.98 in 10.0 mi SSW 11.5 mph - N/A Rain Light Rain
1:28 PM 37.4 °F 29.8 °F 35.6 °F 93% 29.98 in 10.0 mi SSW 11.5 mph - N/A Rain Light Rain
1:30 PM 37.4 °F 28.2 °F 35.6 °F 93% 29.99 in 10.0 mi SSW 16.1 mph 19.6 mph N/A Rain Light Rain
1:40 PM 37.4 °F 31.4 °F 35.6 °F 93% 29.98 in 9.0 mi SW 8.1 mph - N/A   Mostly Cloudy
1:46 PM 39.2 °F 30.8 °F 35.6 °F 87% 29.98 in 10.0 mi SW 15.0 mph 21.9 mph N/A   Scattered Clouds
1:55 PM 38.7 °F 31.4 °F 33.6 °F 82% 29.98 in 10.0 mi SW 11.5 mph 23.0 mph 0.01 in   Scattered Clouds
2:02 PM 39.2 °F 33.0 °F 33.8 °F 81% 29.99 in 10.0 mi SW 9.2 mph - N/A   Mostly Cloudy
2:03 PM 39.2 °F 33.0 °F 33.8 °F 81% 29.99 in 10.0 mi SW 9.2 mph - N/A   Mostly Cloudy
2:04 PM 39.2 °F 32.0 °F 33.8 °F 81% 29.99 in 10.0 mi SW 11.5 mph - N/A   Mostly Cloudy
2:07 PM 39.2 °F 34.2 °F 33.8 °F 81% 29.99 in 10.0 mi SW 6.9 mph - N/A   Mostly Cloudy
2:09 PM 39.2 °F 33.6 °F 33.8 °F 81% 29.99 in 10.0 mi SW 8.1 mph - N/A   Mostly Cloudy
2:24 PM 39.2 °F 29.6 °F 33.8 °F 81% 29.99 in 10.0 mi WSW 19.6 mph 29.9 mph N/A   Mostly Cloudy
2:42 PM 39.2 °F 31.2 °F 35.6 °F 87% 29.99 in 10.0 mi WSW 13.8 mph 18.4 mph N/A Rain Light Rain
2:53 PM 37.4 °F 30.8 °F 32.0 °F 81% 29.99 in 10.0 mi WSW 9.2 mph 18.4 mph N/A   Partly Cloudy
2:55 PM 37.8 °F 29.8 °F 31.1 °F 77% 29.99 in 10.0 mi WSW 12.7 mph 18.4 mph 0.00 in   Partly Cloudy
3:11 PM 37.4 °F 27.5 °F 32.0 °F 81% 30.00 in 10.0 mi West 18.4 mph 25.3 mph N/A Rain Light Rain
3:27 PM 37.4 °F 31.4 °F 32.0 °F 81% 30.00 in 10.0 mi WSW 8.1 mph 20.7 mph N/A   Mostly Cloudy
3:55 PM 36.1 °F 29.9 °F 32.2 °F 86% 30.02 in 10.0 mi SW 8.1 mph - 0.00 in   Mostly Cloudy
3:56 PM 35.6 °F 29.2 °F 32.0 °F 87% 30.02 in 10.0 mi SW 8.1 mph - N/A Snow Light Snow
4:01 PM 35.6 °F 29.9 °F 32.0 °F 87% 30.01 in 4.0 mi Variable 6.9 mph - N/A Snow Light Snow
4:02 PM 35.6 °F 29.2 °F 32.0 °F 87% 30.02 in 3.0 mi WSW 8.1 mph - N/A Snow Light Snow
4:03 PM 35.6 °F 28.0 °F 32.0 °F 87% 30.02 in 3.0 mi SW 10.4 mph - N/A Snow Light Snow
4:04 PM 33.8 °F 25.3 °F 32.0 °F 93% 30.02 in 2.5 mi WSW 11.5 mph 18.4 mph N/A Snow Light Snow
4:05 PM 33.8 °F 23.9 °F 32.0 °F 93% 30.02 in 2.0 mi WSW 15.0 mph 18.4 mph N/A Snow Light Snow
4:06 PM 33.8 °F 23.5 °F 32.0 °F 93% 30.02 in 1.5 mi WSW 16.1 mph 23.0 mph N/A Snow Light Snow
4:08 PM 33.8 °F 23.5 °F 32.0 °F 93% 30.02 in 1.0 mi SW 16.1 mph 23.0 mph N/A Snow Light Snow
4:10 PM 33.8 °F 23.5 °F 32.0 °F 93% 30.02 in 0.8 mi WSW 16.1 mph 27.6 mph N/A Snow Light Snow
4:12 PM 33.8 °F 26.4 °F 32.0 °F 93% 30.01 in 0.5 mi WSW 9.2 mph 27.6 mph N/A Fog , Snow Light Snow
4:14 PM 33.8 °F 25.3 °F 32.0 °F 93% 30.01 in 0.5 mi SW 11.5 mph 27.6 mph N/A Fog , Snow Light Snow
4:15 PM 33.8 °F 25.3 °F 32.0 °F 93% 30.01 in 0.5 mi SW 11.5 mph 27.6 mph N/A Fog , Snow Light Snow
4:18 PM 33.8 °F 25.8 °F 32.0 °F 93% 30.01 in 0.8 mi SSW 10.4 mph 27.6 mph N/A Snow Light Snow
4:20 PM 33.8 °F 25.3 °F 32.0 °F 93% 30.01 in 1.0 mi SSW 11.5 mph - N/A Snow Light Snow
4:21 PM 33.8 °F 25.3 °F 32.0 °F 93% 30.01 in 1.5 mi SSW 11.5 mph - N/A Snow Light Snow
4:22 PM 33.8 °F 25.3 °F 32.0 °F 93% 30.01 in 2.0 mi SSW 11.5 mph - N/A Snow Light Snow
4:23 PM 33.8 °F 24.8 °F 32.0 °F 93% 30.01 in 3.0 mi SSW 12.7 mph - N/A Snow Light Snow
4:27 PM 33.8 °F 24.3 °F 32.0 °F 93% 30.01 in 9.0 mi SSW 13.8 mph - N/A   Mostly Cloudy
4:30 PM 33.8 °F 25.3 °F 32.0 °F 93% 30.00 in 10.0 mi SW 11.5 mph - N/A   Mostly Cloudy
4:31 PM 33.8 °F 25.3 °F 32.0 °F 93% 30.00 in 10.0 mi SW 11.5 mph - N/A   Mostly Cloudy
4:55 PM 33.4 °F 24.8 °F 31.5 °F 92% 30.01 in 10.0 mi SSW 11.5 mph - 0.02 in   Mostly Cloudy
5:14 PM 33.8 °F 25.8 °F 32.0 °F 93% 30.02 in 8.0 mi WSW 10.4 mph - N/A Snow Light Snow
5:16 PM 33.8 °F 24.3 °F 32.0 °F 93% 30.02 in 5.0 mi WSW 13.8 mph 25.3 mph N/A Snow Light Snow
5:31 PM 33.8 °F 25.8 °F 32.0 °F 93% 30.02 in 8.0 mi SW 10.4 mph - N/A Snow Light Snow
5:34 PM 33.8 °F 25.3 °F 32.0 °F 93% 30.01 in 10.0 mi SW 11.5 mph - N/A   Overcast
5:55 PM 33.3 °F 25.1 °F 31.1 °F 92% 30.01 in 10.0 mi SSW 10.4 mph - 0.00 in   Scattered Clouds
6:29 PM 32.0 °F 23.0 °F 30.2 °F 93% 30.02 in 10.0 mi South 11.5 mph - N/A   Partly Cloudy
6:55 PM 31.6 °F 24.4 °F 31.1 °F 98% 30.02 in 10.0 mi SSW 8.1 mph - N/A   Partly Cloudy
7:55 PM 31.8 °F 23.3 °F 30.6 °F 95% 30.03 in 10.0 mi South 10.4 mph - N/A   Clear
8:55 PM 30.9 °F 24.3 °F 30.0 °F 96% 30.03 in 10.0 mi South 6.9 mph - N/A   Scattered Clouds
9:55 PM 30.9 °F 22.8 °F 30.2 °F 97% 30.03 in 10.0 mi South 9.2 mph - N/A   Overcast
10:55 PM 31.5 °F 24.2 °F 30.4 °F 96% 30.03 in 10.0 mi South 8.1 mph - N/A   Clear
11:55 PM 31.1 °F 21.9 °F 30.0 °F 96% 30.03 in 10.0 mi SSW 11.5 mph - N/A   Scattered Clouds